Hourly Weather Centralnyy

Today, 15 June, Tuesday

Time Temperature Precipitation Wind Pressure Humidity
00:00 +15°C° 0 mm 1 mps 749 mmHg 92%
01:00 +15°C° 0 mm 1 mps 749 mmHg 92%
02:00 +14°C° 0 mm 0 mps 749 mmHg 92%
03:00 +15°C° 0 mm 0 mps 749 mmHg 89%
04:00 +15°C° 0 mm 0 mps 749 mmHg 87%
05:00 +16°C° 0 mm 0 mps 749 mmHg 84%
06:00 +18°C° 0 mm 0 mps 749 mmHg 77%
07:00 +22°C° 0 mm 1 mps 749 mmHg 69%
08:00 +24°C° 0 mm 1 mps 749 mmHg 62%
09:00 +25°C° 0 mm 1 mps 749 mmHg 58%
10:00 +26°C° 0 mm 2 mps 748 mmHg 53%
11:00 +27°C° 0 mm 2 mps 748 mmHg 49%
12:00 +26°C° 0 mm 2 mps 747 mmHg 52%
13:00 +26°C° 0 mm 2 mps 747 mmHg 56%
14:00 +25°C° 0 mm 2 mps 747 mmHg 60%
15:00 +25°C° 0 mm 2 mps 746 mmHg 61%
16:00 +25°C° 0 mm 1 mps 746 mmHg 62%
17:00 +25°C° 0 mm 1 mps 746 mmHg 63%
18:00 +23°C° 0.1 mm 1 mps 746 mmHg 68%
19:00 +22°C° 0.1 mm 1 mps 746 mmHg 74%
20:00 +21°C° 0.1 mm 1 mps 746 mmHg 79%
21:00 +20°C° 0 mm 1 mps 746 mmHg 80%
22:00 +19°C° 0 mm 1 mps 746 mmHg 81%
23:00 +18°C° 0 mm 2 mps 746 mmHg 82%

Tomorrow, 16 June, Wednesday

Time Temperature Precipitation Wind Pressure Humidity
00:00 +17°C° 0 mm 2 mps 746 mmHg 83%
01:00 +16°C° 0 mm 2 mps 746 mmHg 84%
02:00 +15°C° 0 mm 2 mps 746 mmHg 85%
03:00 +16°C° 0 mm 2 mps 746 mmHg 85%
04:00 +16°C° 0 mm 2 mps 746 mmHg 85%
05:00 +16°C° 0 mm 2 mps 747 mmHg 85%
06:00 +17°C° 0 mm 3 mps 747 mmHg 79%
07:00 +19°C° 0 mm 3 mps 747 mmHg 73%
08:00 +20°C° 0 mm 3 mps 748 mmHg 68%
09:00 +21°C° 0 mm 4 mps 748 mmHg 59%
10:00 +22°C° 0 mm 4 mps 748 mmHg 50%
11:00 +23°C° 0 mm 4 mps 748 mmHg 41%
12:00 +23°C° 0 mm 4 mps 749 mmHg 39%
13:00 +23°C° 0 mm 4 mps 749 mmHg 36%
14:00 +23°C° 0 mm 4 mps 749 mmHg 34%
15:00 +23°C° 0 mm 4 mps 749 mmHg 37%
16:00 +22°C° 0 mm 3 mps 750 mmHg 41%
17:00 +22°C° 0 mm 3 mps 750 mmHg 44%
18:00 +20°C° 0 mm 2 mps 750 mmHg 52%
19:00 +18°C° 0 mm 2 mps 751 mmHg 60%
20:00 +16°C° 0 mm 2 mps 751 mmHg 68%
21:00 +15°C° 0 mm 2 mps 752 mmHg 69%
22:00 +14°C° 0 mm 2 mps 752 mmHg 70%
23:00 +13°C° 0 mm 2 mps 753 mmHg 71%

Day after tomorrow, 17 June, Thursday

Time Temperature Precipitation Wind Pressure Humidity
00:00 +12°C° 0 mm 2 mps 753 mmHg 70%
01:00 +12°C° 0 mm 2 mps 753 mmHg 70%
02:00 +10°C° 0 mm 2 mps 754 mmHg 69%
03:00 +12°C° 0 mm 1 mps 754 mmHg 68%
04:00 +13°C° 0 mm 1 mps 755 mmHg 67%
05:00 +13°C° 0 mm 1 mps 755 mmHg 66%
06:00 +16°C° 0 mm 1 mps 755 mmHg 58%
07:00 +19°C° 0 mm 1 mps 756 mmHg 50%
08:00 +21°C° 0 mm 1 mps 756 mmHg 43%
09:00 +22°C° 0 mm 1 mps 756 mmHg 41%
10:00 +23°C° 0 mm 2 mps 756 mmHg 39%
11:00 +24°C° 0 mm 2 mps 756 mmHg 37%
12:00 +25°C° 0 mm 2 mps 756 mmHg 37%
13:00 +25°C° 0 mm 2 mps 756 mmHg 36%
14:00 +26°C° 0 mm 2 mps 756 mmHg 36%
15:00 +26°C° 0 mm 2 mps 756 mmHg 41%
16:00 +25°C° 0 mm 2 mps 756 mmHg 45%
17:00 +25°C° 0 mm 1 mps 756 mmHg 50%
18:00 +23°C° 0 mm 1 mps 756 mmHg 57%
19:00 +21°C° 0 mm 1 mps 756 mmHg 65%
20:00 +19°C° 0 mm 1 mps 756 mmHg 72%
21:00 +18°C° 0 mm 1 mps 756 mmHg 75%
22:00 +16°C° 0 mm 1 mps 757 mmHg 77%
23:00 +16°C° 0 mm 1 mps 757 mmHg 79%

18 June, Friday

Time Temperature Precipitation Wind Pressure Humidity
00:00 +15°C° 0 mm 1 mps 757 mmHg 80%
01:00 +15°C° 0 mm 1 mps 757 mmHg 81%
02:00 +14°C° 0 mm 1 mps 757 mmHg 82%
03:00 +15°C° 0 mm 1 mps 758 mmHg 79%
04:00 +16°C° 0 mm 1 mps 758 mmHg 77%
05:00 +16°C° 0 mm 0 mps 758 mmHg 74%
06:00 +20°C° 0 mm 1 mps 758 mmHg 67%
07:00 +22°C° 0 mm 1 mps 758 mmHg 60%
08:00 +24°C° 0 mm 1 mps 758 mmHg 53%
09:00 +25°C° 0 mm 1 mps 758 mmHg 49%
10:00 +26°C° 0 mm 1 mps 758 mmHg 46%
11:00 +27°C° 0 mm 2 mps 758 mmHg 42%
12:00 +28°C° 0 mm 2 mps 758 mmHg 41%
13:00 +28°C° 0 mm 2 mps 757 mmHg 40%
14:00 +29°C° 0 mm 2 mps 757 mmHg 39%
15:00 +29°C° 0 mm 2 mps 757 mmHg 43%
16:00 +28°C° 0 mm 3 mps 757 mmHg 46%
17:00 +28°C° 0 mm 3 mps 756 mmHg 49%
18:00 +26°C° 0 mm 3 mps 756 mmHg 58%
19:00 +24°C° 0 mm 2 mps 756 mmHg 67%
20:00 +20°C° 0 mm 2 mps 756 mmHg 75%
21:00 +20°C° 0 mm 2 mps 757 mmHg 78%
22:00 +19°C° 0 mm 2 mps 757 mmHg 80%
23:00 +18°C° 0 mm 2 mps 757 mmHg 83%

19 June, Saturday

Time Temperature Precipitation Wind Pressure Humidity
00:00 +18°C° 0 mm 2 mps 757 mmHg 83%
01:00 +17°C° 0 mm 3 mps 757 mmHg 84%
02:00 +17°C° 0 mm 3 mps 757 mmHg 84%
03:00 +18°C° 0 mm 3 mps 757 mmHg 83%
04:00 +18°C° 0 mm 3 mps 757 mmHg 82%
05:00 +19°C° 0 mm 3 mps 758 mmHg 81%
06:00 +20°C° 0 mm 3 mps 758 mmHg 73%
07:00 +22°C° 0 mm 3 mps 758 mmHg 65%
08:00 +25°C° 0 mm 4 mps 758 mmHg 57%
09:00 +26°C° 0 mm 4 mps 757 mmHg 53%
10:00 +28°C° 0 mm 4 mps 757 mmHg 48%
11:00 +29°C° 0 mm 4 mps 757 mmHg 44%
12:00 +29°C° 0 mm 4 mps 757 mmHg 43%
13:00 +30°C° 0 mm 4 mps 756 mmHg 42%
14:00 +30°C° 0 mm 4 mps 756 mmHg 40%
15:00 +30°C° 0 mm 3 mps 756 mmHg 43%
16:00 +29°C° 0 mm 3 mps 756 mmHg 46%
17:00 +29°C° 0 mm 2 mps 756 mmHg 49%
18:00 +27°C° 0 mm 2 mps 756 mmHg 58%
19:00 +25°C° 0 mm 2 mps 756 mmHg 68%
20:00 +23°C° 0 mm 2 mps 756 mmHg 77%
21:00 +21°C° 0 mm 2 mps 756 mmHg 80%
22:00 +20°C° 0 mm 2 mps 756 mmHg 83%
23:00 +19°C° 0 mm 2 mps 756 mmHg 87%

20 June, Sunday

Time Temperature Precipitation Wind Pressure Humidity
00:00 +19°C° 0 mm 2 mps 756 mmHg 88%
01:00 +18°C° 0 mm 2 mps 756 mmHg 90%
02:00 +18°C° 0 mm 2 mps 756 mmHg 91%
03:00 +19°C° 0 mm 2 mps 756 mmHg 88%
04:00 +19°C° 0 mm 2 mps 756 mmHg 85%
05:00 +20°C° 0 mm 2 mps 757 mmHg 82%
06:00 +23°C° 0 mm 2 mps 756 mmHg 74%
07:00 +25°C° 0 mm 2 mps 756 mmHg 66%
08:00 +27°C° 0 mm 2 mps 756 mmHg 58%
09:00 +28°C° 0 mm 2 mps 756 mmHg 53%
10:00 +29°C° 0 mm 2 mps 756 mmHg 48%
11:00 +30°C° 0 mm 2 mps 756 mmHg 43%
12:00 +31°C° 0 mm 2 mps 755 mmHg 42%
13:00 +31°C° 0 mm 2 mps 755 mmHg 40%
14:00 +32°C° 0 mm 2 mps 755 mmHg 39%
15:00 +31°C° 0 mm 2 mps 755 mmHg 42%
16:00 +31°C° 0 mm 2 mps 754 mmHg 45%
17:00 +30°C° 0 mm 2 mps 754 mmHg 49%
18:00 +28°C° 0 mm 2 mps 754 mmHg 57%
19:00 +26°C° 0 mm 2 mps 754 mmHg 66%
20:00 +24°C° 0 mm 2 mps 754 mmHg 74%
21:00 +23°C° 0 mm 2 mps 754 mmHg 77%
22:00 +21°C° 0 mm 2 mps 754 mmHg 79%
23:00 +20°C° 0 mm 2 mps 754 mmHg 82%
Show more

We Need Your Consent

Meteoprog and our Service Providers may store and access personal data such as cookies, device identifiers or other similar technologies on your device and process such data to personalise content and ads, as well as provide social media features and to analyse the traffic.

  • Store and/or access information on your device

    Cookies, device identifiers or other information can be stored or accessed on your device for the purposes indicated above.

  • Personalised ads and content, ad and content measurement, audience insights, and products development

    Ads and content can be personalised based on a profile. More data can be added to better personalise ads and content. Ad and content performance can be measured. Insights about the audience who saw the ads and content can be derived. Such data can be used to develop or improve user’s experience, systems and software.

By clicking ‘I Agree’ you will allow the use of indicated cookies, device identifiers, web beacons or other similar technologies. Your settings can be changed in the browser on your device.

For certain purposes, legitimate interests may be relied on, rather than consent. You can read more about this in our Privacy and Cookie Policy.